owner,sensor,date,latitude,longitude,vertical_datum,direction_of_sea_water_velocity,sea_water_speed,upward_sea_water_velocity,qcFlag 
TABS,ioos:station:wmo:42051:1,2002-07-01T00:00:00Z,29.6350,-93.6417,2.0,291.6888514,10.36367695,-99999.0,'11111222,11111222,99999999' 
TABS,ioos:station:wmo:42051:1,2002-07-01T00:30:00Z,29.6350,-93.6417,2.0,268.4259187,10.9241201,-99999.0,'11111222,11111222,99999999' 
TABS,ioos:station:wmo:42051:1,2002-07-01T01:00:00Z,29.6350,-93.6417,2.0,278.597338,6.422156959,-99999.0,'11133222,11111222,99999999' 
TABS,ioos:station:wmo:42051:1,2002-07-01T01:30:00Z,29.6350,-93.6417,2.0,269.3333807,5.160348825,-99999.0,'11133222,11111222,99999999' 
TABS,ioos:station:wmo:42051:1,2002-07-01T02:00:00Z,29.6350,-93.6417,2.0,279.5183478,1.693310367,-99999.0,'11133222,11111222,99999999' 
TABS,ioos:station:wmo:42051:1,2002-07-01T02:30:00Z,29.6350,-93.6417,2.0,248.2110012,8.324722218,-99999.0,'11133222,11111222,99999999' 
TABS,ioos:station:wmo:42051:1,2002-07-01T03:00:00Z,29.6350,-93.6417,2.0,246.5820311,7.900765786,-99999.0,'11133222,11111222,99999999' 
TABS,ioos:station:wmo:42051:1,2002-07-01T03:30:00Z,29.6350,-93.6417,2.0,263.1968457,36.38616495,-99999.0,'11111222,11111222,99999999' 
TABS,ioos:station:wmo:42051:1,2002-07-01T04:00:00Z,29.6350,-93.6417,2.0,257.1167764,46.86980478,-99999.0,'11111222,11111222,99999999' 
TABS,ioos:station:wmo:42051:1,2002-07-01T04:30:00Z,29.6350,-93.6417,2.0,250.1869511,53.13530088,-99999.0,'11111222,11111222,99999999' 
TABS,ioos:station:wmo:42051:1,2002-07-01T05:00:00Z,29.6350,-93.6417,2.0,255.110539,54.91372324,-99999.0,'11111222,11111222,99999999' 
TABS,ioos:station:wmo:42051:1,2002-07-01T05:30:00Z,29.6350,-93.6417,2.0,243.9967818,51.50359696,-99999.0,'11111222,11111222,99999999' 
TABS,ioos:station:wmo:42051:1,2002-07-01T06:00:00Z,29.6350,-93.6417,2.0,235.623612,46.33188103,-99999.0,'11111222,11111222,99999999' 
TABS,ioos:station:wmo:42051:1,2002-07-01T06:30:00Z,29.6350,-93.6417,2.0,241.3381813,45.72241573,-99999.0,'11111222,11111222,99999999' 
TABS,ioos:station:wmo:42051:1,2002-07-01T07:00:00Z,29.6350,-93.6417,2.0,236.5033552,37.72537607,-99999.0,'11111222,11111222,99999999' 
TABS,ioos:station:wmo:42051:1,2002-07-01T07:30:00Z,29.6350,-93.6417,2.0,247.259521,39.21854791,-99999.0,'11111222,11111222,99999999' 
TABS,ioos:station:wmo:42051:1,2002-07-01T08:00:00Z,29.6350,-93.6417,2.0,244.1430256,48.10597156,-99999.0,'11111222,11111222,99999999' 
TABS,ioos:station:wmo:42051:1,2002-07-01T08:30:00Z,29.6350,-93.6417,2.0,242.3088033,48.48284026,-99999.0,'11111222,11111222,99999999' 
TABS,ioos:station:wmo:42051:1,2002-07-01T09:00:00Z,29.6350,-93.6417,2.0,241.2417091,37.51739063,-99999.0,'11111222,11111222,99999999' 
TABS,ioos:station:wmo:42051:1,2002-07-01T09:30:00Z,29.6350,-93.6417,2.0,240.675831,45.06427632,-99999.0,'11111222,11111222,99999999' 
TABS,ioos:station:wmo:42051:1,2002-07-01T10:00:00Z,29.6350,-93.6417,2.0,233.7595174,49.49498965,-99999.0,'11111222,11111222,99999999' 
TABS,ioos:station:wmo:42051:1,2002-07-01T10:30:00Z,29.6350,-93.6417,2.0,234.6491637,46.61438941,-99999.0,'11111222,11111222,99999999' 
TABS,ioos:station:wmo:42051:1,2002-07-01T11:00:00Z,29.6350,-93.6417,2.0,234.8731527,38.39177125,-99999.0,'11111222,11111222,99999999' 
TABS,ioos:station:wmo:42051:1,2002-07-01T11:30:00Z,29.6350,-93.6417,2.0,234.8717485,22.10621632,-99999.0,'11111222,11111222,99999999' 
TABS,ioos:station:wmo:42051:1,2002-07-01T12:00:00Z,29.6350,-93.6417,2.0,228.1561734,15.41002271,-99999.0,'11111222,11111222,99999999' 
TABS,ioos:station:wmo:42051:1,2002-07-01T12:30:00Z,29.6350,-93.6417,2.0,234.7862577,19.71824029,-99999.0,'11111222,11111222,99999999' 
TABS,ioos:station:wmo:42051:1,2002-07-01T13:00:00Z,29.6350,-93.6417,2.0,233.8153341,19.05536407,-99999.0,'11111222,11111222,99999999' 
TABS,ioos:station:wmo:42051:1,2002-07-01T13:30:00Z,29.6350,-93.6417,2.0,222.9225144,19.11858781,-99999.0,'11111222,11111222,99999999' 
TABS,ioos:station:wmo:42051:1,2002-07-01T14:00:00Z,29.6350,-93.6417,2.0,227.5257953,12.51380837,-99999.0,'11111222,11111222,99999999' 
TABS,ioos:station:wmo:42051:1,2002-07-01T14:30:00Z,29.6350,-93.6417,2.0,223.1784968,8.899898876,-99999.0,'11133222,11111222,99999999' 
TABS,ioos:station:wmo:42051:1,2002-07-01T15:00:00Z,29.6350,-93.6417,2.0,217.0962141,9.102071193,-99999.0,'11133222,11111222,99999999' 
TABS,ioos:station:wmo:42051:1,2002-07-01T15:30:00Z,29.6350,-93.6417,2.0,219.5536366,6.705356068,-99999.0,'11133222,11111222,99999999' 
TABS,ioos:station:wmo:42051:1,2002-07-01T16:00:00Z,29.6350,-93.6417,2.0,200.7425906,5.025773572,-99999.0,'11133222,11111222,99999999' 
TABS,ioos:station:wmo:42051:1,2002-07-01T16:30:00Z,29.6350,-93.6417,2.0,253.3501776,7.713377989,-99999.0,'11133222,11111222,99999999' 
TABS,ioos:station:wmo:42051:1,2002-07-01T17:00:00Z,29.6350,-93.6417,2.0,265.0411398,13.18935935,-99999.0,'11111222,11111222,99999999' 
TABS,ioos:station:wmo:42051:1,2002-07-01T17:30:00Z,29.6350,-93.6417,2.0,264.9116173,13.64376048,-99999.0,'11111222,11111222,99999999' 
TABS,ioos:station:wmo:42051:1,2002-07-01T18:00:00Z,29.6350,-93.6417,2.0,267.7985238,14.32056563,-99999.0,'11111222,11111222,99999999' 
TABS,ioos:station:wmo:42051:1,2002-07-01T18:30:00Z,29.6350,-93.6417,2.0,262.8902854,9.049574576,-99999.0,'11133222,11111222,99999999' 
TABS,ioos:station:wmo:42051:1,2002-07-01T19:00:00Z,29.6350,-93.6417,2.0,272.3575067,16.53398923,-99999.0,'11111222,11111222,99999999' 
TABS,ioos:station:wmo:42051:1,2002-07-01T19:30:00Z,29.6350,-93.6417,2.0,281.7542553,16.19967901,-99999.0,'11111222,11111222,99999999' 
TABS,ioos:station:wmo:42051:1,2002-07-01T20:00:00Z,29.6350,-93.6417,2.0,279.7863255,16.59141043,-99999.0,'11111222,11111222,99999999' 
TABS,ioos:station:wmo:42051:1,2002-07-01T20:30:00Z,29.6350,-93.6417,2.0,274.6782735,11.64880251,-99999.0,'11111222,11111222,99999999' 
TABS,ioos:station:wmo:42051:1,2002-07-01T21:00:00Z,29.6350,-93.6417,2.0,278.2216356,12.44792352,-99999.0,'11111222,11111222,99999999' 
TABS,ioos:station:wmo:42051:1,2002-07-01T21:30:00Z,29.6350,-93.6417,2.0,252.8010781,4.396589587,-99999.0,'11133222,11111222,99999999' 
TABS,ioos:station:wmo:42051:1,2002-07-01T22:00:00Z,29.6350,-93.6417,2.0,257.9881288,7.207808266,-99999.0,'11133222,11111222,99999999' 
TABS,ioos:station:wmo:42051:1,2002-07-01T22:30:00Z,29.6350,-93.6417,2.0,245.8781053,14.26566858,-99999.0,'11111222,11111222,99999999' 
TABS,ioos:station:wmo:42051:1,2002-07-01T23:00:00Z,29.6350,-93.6417,2.0,243.2099024,5.702017187,-99999.0,'11133222,11111222,99999999' 
TABS,ioos:station:wmo:42051:1,2002-07-01T23:30:00Z,29.6350,-93.6417,2.0,271.2433988,15.67368814,-99999.0,'11111222,11111222,99999999' 
TABS,ioos:station:wmo:42051:1,2002-07-02T00:00:00Z,29.6350,-93.6417,2.0,265.340245,7.755630213,-99999.0,'11133222,11111222,99999999' 
TABS,ioos:station:wmo:42051:1,2002-07-02T00:30:00Z,29.6350,-93.6417,2.0,253.6040328,26.74767467,-99999.0,'11111222,11111222,99999999' 
TABS,ioos:station:wmo:42051:1,2002-07-02T01:00:00Z,29.6350,-93.6417,2.0,248.6756139,14.93228047,-99999.0,'11111222,11111222,99999999' 
TABS,ioos:station:wmo:42051:1,2002-07-02T01:30:00Z,29.6350,-93.6417,2.0,259.3589843,11.75208067,-99999.0,'11111222,11111222,99999999' 
TABS,ioos:station:wmo:42051:1,2002-07-02T02:00:00Z,29.6350,-93.6417,2.0,262.8025671,10.85552855,-99999.0,'11111222,11111222,99999999' 
TABS,ioos:station:wmo:42051:1,2002-07-02T02:30:00Z,29.6350,-93.6417,2.0,251.1801446,25.91544906,-99999.0,'11111222,11111222,99999999' 
TABS,ioos:station:wmo:42051:1,2002-07-02T03:00:00Z,29.6350,-93.6417,2.0,249.4616791,22.23313743,-99999.0,'11111222,11111222,99999999' 
TABS,ioos:station:wmo:42051:1,2002-07-02T03:30:00Z,29.6350,-93.6417,2.0,219.0954375,14.77915086,-99999.0,'11111222,11111222,99999999' 
TABS,ioos:station:wmo:42051:1,2002-07-02T04:00:00Z,29.6350,-93.6417,2.0,259.2905492,14.96056149,-99999.0,'11111222,11111222,99999999' 
TABS,ioos:station:wmo:42051:1,2002-07-02T04:30:00Z,29.6350,-93.6417,2.0,237.4174174,22.95223736,-99999.0,'11111222,11111222,99999999' 
TABS,ioos:station:wmo:42051:1,2002-07-02T05:00:00Z,29.6350,-93.6417,2.0,244.4776331,36.11400975,-99999.0,'11111222,11111222,99999999' 
TABS,ioos:station:wmo:42051:1,2002-07-02T05:30:00Z,29.6350,-93.6417,2.0,253.3003739,44.37130266,-99999.0,'11111222,11111222,99999999' 
TABS,ioos:station:wmo:42051:1,2002-07-02T06:00:00Z,29.6350,-93.6417,2.0,255.8816218,47.59766486,-99999.0,'11111222,11111222,99999999' 
TABS,ioos:station:wmo:42051:1,2002-07-02T06:30:00Z,29.6350,-93.6417,2.0,239.1618193,28.87185654,-99999.0,'11111222,11111222,99999999' 
TABS,ioos:station:wmo:42051:1,2002-07-02T07:00:00Z,29.6350,-93.6417,2.0,244.687515,18.40724042,-99999.0,'11111222,11111222,99999999' 
TABS,ioos:station:wmo:42051:1,2002-07-02T07:30:00Z,29.6350,-93.6417,2.0,249.404287,54.61024171,-99999.0,'11111222,11111222,99999999' 
TABS,ioos:station:wmo:42051:1,2002-07-02T08:00:00Z,29.6350,-93.6417,2.0,249.3083539,45.62276625,-99999.0,'11111222,11111222,99999999' 
TABS,ioos:station:wmo:42051:1,2002-07-02T08:30:00Z,29.6350,-93.6417,2.0,248.9428683,49.15213627,-99999.0,'11111222,11111222,99999999' 
TABS,ioos:station:wmo:42051:1,2002-07-02T09:00:00Z,29.6350,-93.6417,2.0,249.2682887,50.11491295,-99999.0,'11111222,11111222,99999999' 
TABS,ioos:station:wmo:42051:1,2002-07-02T09:30:00Z,29.6350,-93.6417,2.0,239.7556965,49.55499672,-99999.0,'11111222,11111222,99999999' 
TABS,ioos:station:wmo:42051:1,2002-07-02T10:00:00Z,29.6350,-93.6417,2.0,242.3335854,49.34124137,-99999.0,'11111222,11111222,99999999' 
TABS,ioos:station:wmo:42051:1,2002-07-02T10:30:00Z,29.6350,-93.6417,2.0,236.7775365,46.52425711,-99999.0,'11111222,11111222,99999999' 
TABS,ioos:station:wmo:42051:1,2002-07-02T11:00:00Z,29.6350,-93.6417,2.0,236.2664228,25.76860493,-99999.0,'11111222,11111222,99999999' 
TABS,ioos:station:wmo:42051:1,2002-07-02T11:30:00Z,29.6350,-93.6417,2.0,239.9333807,22.55483097,-99999.0,'11111222,11111222,99999999' 
TABS,ioos:station:wmo:42051:1,2002-07-02T12:00:00Z,29.6350,-93.6417,2.0,239.5837225,31.03065742,-99999.0,'11111222,11111222,99999999' 
TABS,ioos:station:wmo:42051:1,2002-07-02T12:30:00Z,29.6350,-93.6417,2.0,234.3002745,23.88898491,-99999.0,'11111222,11111222,99999999' 
TABS,ioos:station:wmo:42051:1,2002-07-02T13:00:00Z,29.6350,-93.6417,2.0,232.854562,26.23230261,-99999.0,'11111222,11111222,99999999' 
TABS,ioos:station:wmo:42051:1,2002-07-02T13:30:00Z,29.6350,-93.6417,2.0,230.3059049,28.21426058,-99999.0,'11111222,11111222,99999999' 
TABS,ioos:station:wmo:42051:1,2002-07-02T14:00:00Z,29.6350,-93.6417,2.0,234.3269452,29.10035223,-99999.0,'11111222,11111222,99999999' 
TABS,ioos:station:wmo:42051:1,2002-07-02T14:30:00Z,29.6350,-93.6417,2.0,228.7286095,39.24974013,-99999.0,'11111222,11111222,99999999' 
TABS,ioos:station:wmo:42051:1,2002-07-02T15:00:00Z,29.6350,-93.6417,2.0,232.1977081,46.10610046,-99999.0,'11111222,11111222,99999999' 
TABS,ioos:station:wmo:42051:1,2002-07-02T15:30:00Z,29.6350,-93.6417,2.0,232.6516404,45.2975772,-99999.0,'11111222,11111222,99999999' 
TABS,ioos:station:wmo:42051:1,2002-07-02T16:00:00Z,29.6350,-93.6417,2.0,235.931157,27.29461852,-99999.0,'11111222,11111222,99999999' 
TABS,ioos:station:wmo:42051:1,2002-07-02T16:30:00Z,29.6350,-93.6417,2.0,240.3808014,29.88500125,-99999.0,'11111222,11111222,99999999' 
TABS,ioos:station:wmo:42051:1,2002-07-02T17:00:00Z,29.6350,-93.6417,2.0,244.878925,30.33966546,-99999.0,'11111222,11111222,99999999' 
TABS,ioos:station:wmo:42051:1,2002-07-02T17:30:00Z,29.6350,-93.6417,2.0,280.0372999,5.737813172,-99999.0,'11133222,11111222,99999999' 
TABS,ioos:station:wmo:42051:1,2002-07-02T18:00:00Z,29.6350,-93.6417,2.0,241.2000756,8.946602707,-99999.0,'11133222,11111222,99999999' 
TABS,ioos:station:wmo:42051:1,2002-07-02T18:30:00Z,29.6350,-93.6417,2.0,240.1255778,11.00190893,-99999.0,'11111222,11111222,99999999' 
TABS,ioos:station:wmo:42051:1,2002-07-02T19:00:00Z,29.6350,-93.6417,2.0,233.2470673,10.74602252,-99999.0,'11111222,11111222,99999999' 
TABS,ioos:station:wmo:42051:1,2002-07-02T19:30:00Z,29.6350,-93.6417,2.0,238.6171129,7.50840862,-99999.0,'11133222,11111222,99999999' 
TABS,ioos:station:wmo:42051:1,2002-07-02T20:00:00Z,29.6350,-93.6417,2.0,234.4619844,10.15074382,-99999.0,'11111222,11111222,99999999' 
TABS,ioos:station:wmo:42051:1,2002-07-02T20:30:00Z,29.6350,-93.6417,2.0,225.2158933,11.24307787,-99999.0,'11111222,11111222,99999999' 
TABS,ioos:station:wmo:42051:1,2002-07-02T21:00:00Z,29.6350,-93.6417,2.0,231.9590901,15.17316711,-99999.0,'11111222,11111222,99999999' 
TABS,ioos:station:wmo:42051:1,2002-07-02T21:30:00Z,29.6350,-93.6417,2.0,230.5481376,12.43261839,-99999.0,'11111222,11111222,99999999' 
TABS,ioos:station:wmo:42051:1,2002-07-02T23:00:00Z,29.6350,-93.6417,2.0,18.4861818,7.096153888,-99999.0,'11133222,11111222,99999999' 
TABS,ioos:station:wmo:42051:1,2002-07-02T23:30:00Z,29.6350,-93.6417,2.0,337.489058,6.895397015,-99999.0,'11133222,11111222,99999999' 
TABS,ioos:station:wmo:42051:1,2002-07-03T00:00:00Z,29.6350,-93.6417,2.0,348.3214534,7.311361022,-99999.0,'11133222,11111222,99999999' 
TABS,ioos:station:wmo:42051:1,2002-07-03T00:30:00Z,29.6350,-93.6417,2.0,342.0665471,8.313946115,-99999.0,'11133222,11111222,99999999' 
TABS,ioos:station:wmo:42051:1,2002-07-03T01:00:00Z,29.6350,-93.6417,2.0,350.7426831,4.599913043,-99999.0,'11133222,11111222,99999999' 
TABS,ioos:station:wmo:42051:1,2002-07-03T01:30:00Z,29.6350,-93.6417,2.0,324.2536991,2.550490149,-99999.0,'11133222,11111222,99999999' 
TABS,ioos:station:wmo:42051:1,2002-07-03T02:00:00Z,29.6350,-93.6417,2.0,341.6877312,2.959898647,-99999.0,'11133222,11111222,99999999' 
TABS,ioos:station:wmo:42051:1,2002-07-03T02:30:00Z,29.6350,-93.6417,2.0,344.5539302,2.365438649,-99999.0,'11133222,11111222,99999999' 
TABS,ioos:station:wmo:42051:1,2002-07-03T03:00:00Z,29.6350,-93.6417,2.0,129.289315,0.568506816,-99999.0,'11133222,11111222,99999999' 
TABS,ioos:station:wmo:42051:1,2002-07-03T03:30:00Z,29.6350,-93.6417,2.0,169.8683271,2.956095398,-99999.0,'11133222,11111222,99999999' 
TABS,ioos:station:wmo:42051:1,2002-07-03T04:00:00Z,29.6350,-93.6417,2.0,199.0442004,2.972709202,-99999.0,'11133222,11111222,99999999' 
TABS,ioos:station:wmo:42051:1,2002-07-03T04:30:00Z,29.6350,-93.6417,2.0,209.5225262,4.160156247,-99999.0,'11133222,11111222,99999999' 
TABS,ioos:station:wmo:42051:1,2002-07-03T05:00:00Z,29.6350,-93.6417,2.0,178.9896435,3.970617081,-99999.0,'11133222,11111222,99999999' 
TABS,ioos:station:wmo:42051:1,2002-07-03T05:30:00Z,29.6350,-93.6417,2.0,223.0478131,7.266202585,-99999.0,'11133222,11111222,99999999' 
TABS,ioos:station:wmo:42051:1,2002-07-03T06:00:00Z,29.6350,-93.6417,2.0,218.6755297,11.16954789,-99999.0,'11111222,11111222,99999999' 
TABS,ioos:station:wmo:42051:1,2002-07-03T06:30:00Z,29.6350,-93.6417,2.0,214.0674277,8.836566075,-99999.0,'11133222,11111222,99999999' 
TABS,ioos:station:wmo:42051:1,2002-07-03T07:00:00Z,29.6350,-93.6417,2.0,239.680415,8.537739748,-99999.0,'11133222,11111222,99999999' 
TABS,ioos:station:wmo:42051:1,2002-07-03T07:30:00Z,29.6350,-93.6417,2.0,239.9805083,14.25175428,-99999.0,'11111222,11111222,99999999' 
TABS,ioos:station:wmo:42051:1,2002-07-03T08:00:00Z,29.6350,-93.6417,2.0,246.1369891,12.23595521,-99999.0,'11111222,11111222,99999999' 
TABS,ioos:station:wmo:42051:1,2002-07-03T08:30:00Z,29.6350,-93.6417,2.0,239.2169893,14.10754408,-99999.0,'11111222,11111222,99999999' 
TABS,ioos:station:wmo:42051:1,2002-07-03T09:00:00Z,29.6350,-93.6417,2.0,247.2475194,14.99696303,-99999.0,'11111222,11111222,99999999' 
TABS,ioos:station:wmo:42051:1,2002-07-03T09:30:00Z,29.6350,-93.6417,2.0,259.803163,8.981853929,-99999.0,'11133222,11111222,99999999' 
TABS,ioos:station:wmo:42051:1,2002-07-03T10:00:00Z,29.6350,-93.6417,2.0,265.7665178,12.73473989,-99999.0,'11111222,11111222,99999999' 
TABS,ioos:station:wmo:42051:1,2002-07-03T10:30:00Z,29.6350,-93.6417,2.0,266.1283319,6.665208174,-99999.0,'11133222,11111222,99999999' 
TABS,ioos:station:wmo:42051:1,2002-07-03T11:00:00Z,29.6350,-93.6417,2.0,286.4963708,7.290061728,-99999.0,'11133222,11111222,99999999' 
TABS,ioos:station:wmo:42051:1,2002-07-03T11:30:00Z,29.6350,-93.6417,2.0,254.0369054,4.545261269,-99999.0,'11133222,11111222,99999999' 
TABS,ioos:station:wmo:42051:1,2002-07-03T12:00:00Z,29.6350,-93.6417,2.0,259.8375197,5.384468405,-99999.0,'11133222,11111222,99999999' 
TABS,ioos:station:wmo:42051:1,2002-07-03T12:30:00Z,29.6350,-93.6417,2.0,255.1653379,4.179294199,-99999.0,'11133222,11111222,99999999' 
TABS,ioos:station:wmo:42051:1,2002-07-03T13:00:00Z,29.6350,-93.6417,2.0,238.0572745,4.819813274,-99999.0,'11133222,11111222,99999999' 
TABS,ioos:station:wmo:42051:1,2002-07-03T13:30:00Z,29.6350,-93.6417,2.0,213.2180434,3.705522905,-99999.0,'11133222,11111222,99999999' 
TABS,ioos:station:wmo:42051:1,2002-07-03T14:00:00Z,29.6350,-93.6417,2.0,232.7443767,5.352121075,-99999.0,'11133222,11111222,99999999' 
TABS,ioos:station:wmo:42051:1,2002-07-03T14:30:00Z,29.6350,-93.6417,2.0,189.0798412,2.217791694,-99999.0,'11133222,11111222,99999999' 
TABS,ioos:station:wmo:42051:1,2002-07-03T15:00:00Z,29.6350,-93.6417,2.0,189.7193336,4.027815785,-99999.0,'11133222,11111222,99999999' 
TABS,ioos:station:wmo:42051:1,2002-07-03T15:30:00Z,29.6350,-93.6417,2.0,210.1616964,6.985821355,-99999.0,'11133222,11111222,99999999' 
TABS,ioos:station:wmo:42051:1,2002-07-03T16:00:00Z,29.6350,-93.6417,2.0,235.8257423,9.524541984,-99999.0,'11133222,11111222,99999999' 
TABS,ioos:station:wmo:42051:1,2002-07-03T16:30:00Z,29.6350,-93.6417,2.0,215.1131762,5.024360656,-99999.0,'11133222,11111222,99999999' 
TABS,ioos:station:wmo:42051:1,2002-07-03T17:00:00Z,29.6350,-93.6417,2.0,195.9951953,9.435300737,-99999.0,'11133222,11111222,99999999' 
TABS,ioos:station:wmo:42051:1,2002-07-03T17:30:00Z,29.6350,-93.6417,2.0,194.3142497,11.48662265,-99999.0,'11111222,11111222,99999999' 
TABS,ioos:station:wmo:42051:1,2002-07-03T18:00:00Z,29.6350,-93.6417,2.0,218.7059429,15.4159171,-99999.0,'11111222,11111222,99999999' 
TABS,ioos:station:wmo:42051:1,2002-07-03T18:30:00Z,29.6350,-93.6417,2.0,214.183978,9.646595254,-99999.0,'11133222,11111222,99999999' 
TABS,ioos:station:wmo:42051:1,2002-07-03T19:00:00Z,29.6350,-93.6417,2.0,220.5214258,12.49737572,-99999.0,'11111222,11111222,99999999' 
TABS,ioos:station:wmo:42051:1,2002-07-03T19:30:00Z,29.6350,-93.6417,2.0,204.2875365,16.09451149,-99999.0,'11111222,11111222,99999999' 
TABS,ioos:station:wmo:42051:1,2002-07-03T20:00:00Z,29.6350,-93.6417,2.0,209.6217812,17.35870099,-99999.0,'11111222,11111222,99999999' 
TABS,ioos:station:wmo:42051:1,2002-07-03T20:30:00Z,29.6350,-93.6417,2.0,216.9891605,25.87805634,-99999.0,'11111222,11111222,99999999' 
TABS,ioos:station:wmo:42051:1,2002-07-03T21:00:00Z,29.6350,-93.6417,2.0,220.8058596,15.4704945,-99999.0,'11111222,11111222,99999999' 
TABS,ioos:station:wmo:42051:1,2002-07-03T21:30:00Z,29.6350,-93.6417,2.0,234.6294651,19.48667493,-99999.0,'11111222,11111222,99999999' 
TABS,ioos:station:wmo:42051:1,2002-07-03T22:00:00Z,29.6350,-93.6417,2.0,220.2575101,14.11266453,-99999.0,'11111222,11111222,99999999' 
TABS,ioos:station:wmo:42051:1,2002-07-03T22:30:00Z,29.6350,-93.6417,2.0,239.3446535,16.86713076,-99999.0,'11111222,11111222,99999999' 
TABS,ioos:station:wmo:42051:1,2002-07-03T23:00:00Z,29.6350,-93.6417,2.0,238.2020735,21.91984033,-99999.0,'11111222,11111222,99999999' 
TABS,ioos:station:wmo:42051:1,2002-07-03T23:30:00Z,29.6350,-93.6417,2.0,238.5108514,18.34082877,-99999.0,'11111222,11111222,99999999' 
TABS,ioos:station:wmo:42051:1,2002-07-04T00:00:00Z,29.6350,-93.6417,2.0,242.3324049,10.22966764,-99999.0,'11111222,11111222,99999999' 
TABS,ioos:station:wmo:42051:1,2002-07-04T00:30:00Z,29.6350,-93.6417,2.0,229.9860064,10.57591604,-99999.0,'11111222,11111222,99999999' 
TABS,ioos:station:wmo:42051:1,2002-07-04T01:00:00Z,29.6350,-93.6417,2.0,231.1882858,10.03576106,-99999.0,'11111222,11111222,99999999' 
TABS,ioos:station:wmo:42051:1,2002-07-04T01:30:00Z,29.6350,-93.6417,2.0,215.8848741,6.516962483,-99999.0,'11133222,11111222,99999999' 
TABS,ioos:station:wmo:42051:1,2002-07-04T02:00:00Z,29.6350,-93.6417,2.0,250.0958761,4.934774564,-99999.0,'11133222,11111222,99999999' 
TABS,ioos:station:wmo:42051:1,2002-07-04T02:30:00Z,29.6350,-93.6417,2.0,220.4054417,11.12317401,-99999.0,'11111222,11111222,99999999' 
TABS,ioos:station:wmo:42051:1,2002-07-04T03:00:00Z,29.6350,-93.6417,2.0,204.0842078,6.199717736,-99999.0,'11133222,11111222,99999999' 
TABS,ioos:station:wmo:42051:1,2002-07-04T03:30:00Z,29.6350,-93.6417,2.0,206.8635798,3.430174923,-99999.0,'11133222,11111222,99999999' 
TABS,ioos:station:wmo:42051:1,2002-07-04T04:00:00Z,29.6350,-93.6417,2.0,183.5910402,4.789404973,-99999.0,'11133222,11111222,99999999' 
TABS,ioos:station:wmo:42051:1,2002-07-04T04:30:00Z,29.6350,-93.6417,2.0,197.7317165,5.154900581,-99999.0,'11133222,11111222,99999999' 
TABS,ioos:station:wmo:42051:1,2002-07-04T05:00:00Z,29.6350,-93.6417,2.0,207.2527519,6.704215092,-99999.0,'11133222,11111222,99999999' 
TABS,ioos:station:wmo:42051:1,2002-07-04T05:30:00Z,29.6350,-93.6417,2.0,221.5259364,8.8692728,-99999.0,'11133222,11111222,99999999' 
TABS,ioos:station:wmo:42051:1,2002-07-04T06:00:00Z,29.6350,-93.6417,2.0,212.1650455,5.315910082,-99999.0,'11133222,11111222,99999999' 
TABS,ioos:station:wmo:42051:1,2002-07-04T06:30:00Z,29.6350,-93.6417,2.0,214.8328496,7.090479532,-99999.0,'11133222,11111222,99999999' 
TABS,ioos:station:wmo:42051:1,2002-07-04T07:00:00Z,29.6350,-93.6417,2.0,216.1739763,7.742570633,-99999.0,'11133222,11111222,99999999' 
TABS,ioos:station:wmo:42051:1,2002-07-04T07:30:00Z,29.6350,-93.6417,2.0,206.6179285,4.820964634,-99999.0,'11133222,11111222,99999999' 
TABS,ioos:station:wmo:42051:1,2002-07-04T08:00:00Z,29.6350,-93.6417,2.0,189.2907387,4.397692577,-99999.0,'11133222,11111222,99999999' 
TABS,ioos:station:wmo:42051:1,2002-07-04T08:30:00Z,29.6350,-93.6417,2.0,237.9174669,1.581518258,-99999.0,'11133222,11111222,99999999' 
TABS,ioos:station:wmo:42051:1,2002-07-04T09:00:00Z,29.6350,-93.6417,2.0,173.9273473,2.36326046,-99999.0,'11133222,11111222,99999999' 
TABS,ioos:station:wmo:42051:1,2002-07-04T09:30:00Z,29.6350,-93.6417,2.0,190.8227755,3.461574786,-99999.0,'11133222,11111222,99999999' 
TABS,ioos:station:wmo:42051:1,2002-07-04T10:00:00Z,29.6350,-93.6417,2.0,208.6946268,2.166010157,-99999.0,'11133222,11111222,99999999' 
TABS,ioos:station:wmo:42051:1,2002-07-04T10:30:00Z,29.6350,-93.6417,2.0,204.8308888,4.286268774,-99999.0,'11133222,11111222,99999999' 
TABS,ioos:station:wmo:42051:1,2002-07-04T11:00:00Z,29.6350,-93.6417,2.0,196.1341529,2.914807026,-99999.0,'11133222,11111222,99999999' 
TABS,ioos:station:wmo:42051:1,2002-07-04T11:30:00Z,29.6350,-93.6417,2.0,229.1736239,3.594565342,-99999.0,'11133222,11111222,99999999' 
TABS,ioos:station:wmo:42051:1,2002-07-04T12:00:00Z,29.6350,-93.6417,2.0,190.1016424,3.534798438,-99999.0,'11133222,11111222,99999999' 
TABS,ioos:station:wmo:42051:1,2002-07-04T12:30:00Z,29.6350,-93.6417,2.0,192.7572919,3.260490761,-99999.0,'11133222,11111222,99999999' 
TABS,ioos:station:wmo:42051:1,2002-07-04T13:00:00Z,29.6350,-93.6417,2.0,202.8094473,3.482326808,-99999.0,'11133222,11111222,99999999' 
TABS,ioos:station:wmo:42051:1,2002-07-04T13:30:00Z,29.6350,-93.6417,2.0,211.2707409,4.796884406,-99999.0,'11133222,11111222,99999999' 
TABS,ioos:station:wmo:42051:1,2002-07-04T14:00:00Z,29.6350,-93.6417,2.0,221.3952722,7.198444276,-99999.0,'11133222,11111222,99999999' 
TABS,ioos:station:wmo:42051:1,2002-07-04T14:30:00Z,29.6350,-93.6417,2.0,239.2516387,6.376362599,-99999.0,'11133222,11111222,99999999' 
TABS,ioos:station:wmo:42051:1,2002-07-04T15:00:00Z,29.6350,-93.6417,2.0,229.9855903,13.01759578,-99999.0,'11111222,11111222,99999999' 
TABS,ioos:station:wmo:42051:1,2002-07-04T15:30:00Z,29.6350,-93.6417,2.0,216.5777751,11.7801528,-99999.0,'11111222,11111222,99999999' 
TABS,ioos:station:wmo:42051:1,2002-07-04T16:00:00Z,29.6350,-93.6417,2.0,211.1163221,17.35743357,-99999.0,'11111222,11111222,99999999' 
TABS,ioos:station:wmo:42051:1,2002-07-04T16:30:00Z,29.6350,-93.6417,2.0,220.0048858,14.7000034,-99999.0,'11111222,11111222,99999999' 